This is the latest recevied weather packets stored in our database for station/object KD4MBW. If no packets are shown the sender has not sent any weather packets the latest 10 day(s).
| Time | Temp. | Humidity | Pressure | Rain* | Wind** | Luminosity | Snow |
|---|---|---|---|---|---|---|---|
| 1777837400 | 24.44° C | 34% | 1018.4 hPa | 0 mm | - | 578 W/m² | - |
| 1777837097 | 25° C | 33% | 1018.6 hPa | 0 mm | - | 728 W/m² | - |
| 1777836793 | 23.89° C | 33% | 1018.8 hPa | 0 mm | - | 712 W/m² | - |
| 1777836489 | 23.89° C | 35% | 1018.8 hPa | 0 mm | - | 660 W/m² | - |
| 1777836184 | 23.89° C | 33% | 1019 hPa | 0 mm | - | 577 W/m² | - |
| 1777835881 | 24.44° C | 34% | 1019 hPa | 0 mm | - | 677 W/m² | - |
| 1777835577 | 23.89° C | 35% | 1019.2 hPa | 0 mm | - | 696 W/m² | - |
| 1777835275 | 23.89° C | 36% | 1019 hPa | 0 mm | - | 740 W/m² | - |
| 1777834971 | 24.44° C | 34% | 1019.1 hPa | 0 mm | - | 654 W/m² | - |
| 1777834669 | 24.44° C | 35% | 1019.4 hPa | 0 mm | - | 751 W/m² | - |
| 1777834364 | 23.89° C | 35% | 1019 hPa | 0 mm | - | 741 W/m² | - |
| 1777834059 | 23.89° C | 34% | 1019.3 hPa | 0 mm | - | 770 W/m² | - |
| 1777833756 | 23.33° C | 36% | 1019.7 hPa | 0 mm | - | 777 W/m² | - |
| 1777833452 | 23.89° C | 35% | 1019.6 hPa | 0 mm | - | 784 W/m² | - |
| 1777833149 | 23.89° C | 36% | 1019.6 hPa | 0 mm | - | 786 W/m² | - |
| 1777832847 | 23.89° C | 36% | 1019.6 hPa | 0 mm | - | 656 W/m² | - |
| 1777832545 | 23.89° C | 35% | 1019.8 hPa | 0 mm | - | 783 W/m² | - |
| 1777832241 | 23.89° C | 35% | 1019.5 hPa | 0 mm | - | 746 W/m² | - |
| 1777831938 | 23.33° C | 34% | 1019.8 hPa | 0 mm | - | 758 W/m² | - |
| 1777831634 | 23.33° C | 34% | 1019.7 hPa | 0 mm | - | 619 W/m² | - |
| 1777831333 | 23.33° C | 36% | 1019.9 hPa | 0 mm | - | 830 W/m² | - |
| 1777831030 | 23.33° C | 35% | 1019.9 hPa | 0 mm | - | 814 W/m² | - |
| 1777830728 | 23.33° C | 34% | 1020.2 hPa | 0 mm | - | 822 W/m² | - |
| 1777830423 | 23.89° C | 35% | 1020.2 hPa | 0 mm | - | 805 W/m² | - |
| 1777830121 | 23.33° C | 36% | 1020 hPa | 0 mm | - | 614 W/m² | - |
* Rain latest hour (hover to see other rain measurements)
** Current wind speed in m/s (hover to see current wind gust speed)